Time,TemperatureF,DewpointF,PressureIn,WindDirection,WindDirectionDegrees,WindSpeedMPH,WindSpeedGustMPH,Humidity,HourlyPrecipIn,Conditions,Clouds,dailyrainin,SoftwareType,DateUTC
2013-06-16 00:01:00,70.2,64.1,30.03,NE,42,0.0,0.0,81,0.00,,,0.00,WeatherDisplay:10.36,2013-06-16 05:01:00,
2013-06-16 00:06:00,70.2,64.4,30.00,NE,45,0.0,0.0,82,0.00,,,0.00,WeatherDisplay:10.36,2013-06-16 05:06:00,
2013-06-16 00:11:00,70.2,64.4,30.00,NE,38,4.6,0.0,82,0.00,,,0.00,WeatherDisplay:10.36,2013-06-16 05:11:00,
2013-06-16 00:16:00,70.2,64.4,30.00,NE,38,0.0,0.0,82,0.00,,,0.00,WeatherDisplay:10.36,2013-06-16 05:16:00,
2013-06-16 00:21:00,70.2,64.4,30.00,NE,38,5.8,5.8,82,0.00,,,0.00,WeatherDisplay:10.36,2013-06-16 05:21:00,
2013-06-16 00:26:00,70.3,64.6,30.00,NE,41,3.1,0.0,82,0.00,,,0.00,WeatherDisplay:10.36,2013-06-16 05:26:00,
2013-06-16 00:31:00,70.3,64.6,30.00,NE,37,4.6,4.6,82,0.00,,,0.00,WeatherDisplay:10.36,2013-06-16 05:31:00,
2013-06-16 00:36:00,70.2,64.1,30.00,NE,39,4.6,4.6,81,0.00,,,0.00,WeatherDisplay:10.36,2013-06-16 05:36:00,
2013-06-16 00:41:00,70.3,64.2,30.00,NE,38,0.0,0.0,81,0.00,,,0.00,WeatherDisplay:10.36,2013-06-16 05:41:00,
2013-06-16 00:46:00,70.3,64.2,30.00,NE,41,4.9,4.9,81,0.00,,,0.00,WeatherDisplay:10.36,2013-06-16 05:46:00,
2013-06-16 00:51:00,70.3,64.2,30.00,NE,45,6.3,6.3,81,0.00,,,0.00,WeatherDisplay:10.36,2013-06-16 05:51:00,
2013-06-16 00:56:00,70.3,64.2,30.00,NE,44,5.8,5.8,81,0.00,,,0.00,WeatherDisplay:10.36,2013-06-16 05:56:00,
2013-06-16 01:01:00,70.3,64.2,30.00,NE,42,5.8,5.8,81,0.00,,,0.00,WeatherDisplay:10.36,2013-06-16 06:01:00,
2013-06-16 01:06:00,70.2,64.1,29.97,NE,41,5.4,5.4,81,0.00,,,0.00,WeatherDisplay:10.36,2013-06-16 06:06:00,
2013-06-16 01:11:00,70.2,63.7,29.97,NE,42,6.9,6.9,80,0.00,,,0.00,WeatherDisplay:10.36,2013-06-16 06:11:00,
2013-06-16 01:16:00,70.0,63.5,29.97,NE,38,5.8,0.0,80,0.00,,,0.00,WeatherDisplay:10.36,2013-06-16 06:16:00,
2013-06-16 01:21:00,70.0,63.5,29.97,NE,39,0.0,0.0,80,0.00,,,0.00,WeatherDisplay:10.36,2013-06-16 06:21:00,
2013-06-16 01:26:00,70.0,63.5,29.97,NE,40,0.0,0.0,80,0.00,,,0.00,WeatherDisplay:10.36,2013-06-16 06:26:00,
2013-06-16 01:31:00,70.0,63.5,29.97,NE,40,0.0,0.0,80,0.00,,,0.00,WeatherDisplay:10.36,2013-06-16 06:31:00,
2013-06-16 01:36:00,69.8,63.3,29.97,NE,39,0.0,0.0,80,0.00,,,0.00,WeatherDisplay:10.36,2013-06-16 06:36:00,
2013-06-16 01:41:00,69.6,63.5,29.97,NE,37,0.0,0.0,81,0.00,,,0.00,WeatherDisplay:10.36,2013-06-16 06:41:00,
2013-06-16 01:46:00,69.8,63.7,29.97,NE,38,0.0,0.0,81,0.00,,,0.00,WeatherDisplay:10.36,2013-06-16 06:46:00,
2013-06-16 01:51:00,69.8,63.7,29.97,NE,39,0.0,0.0,81,0.00,,,0.00,WeatherDisplay:10.36,2013-06-16 06:51:00,
2013-06-16 01:56:00,69.8,63.7,29.97,NE,38,0.0,0.0,81,0.00,,,0.00,WeatherDisplay:10.36,2013-06-16 06:56:00,
2013-06-16 02:01:00,69.8,63.7,29.97,NE,38,0.0,0.0,81,0.00,,,0.00,WeatherDisplay:10.36,2013-06-16 07:01:00,
2013-06-16 02:06:00,69.8,63.7,29.97,NE,38,0.0,0.0,81,0.00,,,0.00,WeatherDisplay:10.36,2013-06-16 07:06:00,
2013-06-16 02:11:00,69.8,63.7,29.97,NE,38,0.0,0.0,81,0.00,,,0.00,WeatherDisplay:10.36,2013-06-16 07:11:00,
2013-06-16 02:16:00,70.0,63.9,29.97,NE,37,0.0,0.0,81,0.04,RA,RA,0.04,WeatherDisplay:10.36,2013-06-16 07:16:00,
2013-06-16 02:21:00,69.6,63.5,29.97,NE,37,0.0,0.0,81,0.04,RA,RA,0.04,WeatherDisplay:10.36,2013-06-16 07:21:00,
2013-06-16 02:26:00,69.6,63.5,29.97,NE,39,0.0,0.0,81,0.04,,,0.04,WeatherDisplay:10.36,2013-06-16 07:26:00,
2013-06-16 02:31:00,69.4,63.4,29.97,NE,39,4.6,4.6,81,0.08,RA,RA,0.08,WeatherDisplay:10.36,2013-06-16 07:31:00,
2013-06-16 02:36:00,69.4,63.4,29.94,NE,41,3.5,3.5,81,0.08,RA,RA,0.08,WeatherDisplay:10.36,2013-06-16 07:36:00,
2013-06-16 02:41:00,69.4,63.4,29.94,NE,40,3.6,0.0,81,0.08,,,0.08,WeatherDisplay:10.36,2013-06-16 07:41:00,
2013-06-16 02:46:00,69.4,63.4,29.94,NE,43,4.0,0.0,81,0.08,,,0.08,WeatherDisplay:10.36,2013-06-16 07:46:00,
2013-06-16 02:51:00,69.6,63.5,29.94,NE,42,3.5,0.0,81,0.08,,,0.08,WeatherDisplay:10.36,2013-06-16 07:51:00,
2013-06-16 02:56:00,69.6,63.5,29.94,NE,40,4.0,0.0,81,0.08,,,0.08,WeatherDisplay:10.36,2013-06-16 07:56:00,
2013-06-16 03:01:00,69.6,63.5,29.94,NE,40,3.5,0.0,81,0.08,,,0.08,WeatherDisplay:10.36,2013-06-16 08:01:00,
2013-06-16 03:06:00,69.6,63.5,29.94,NE,44,2.7,0.0,81,0.08,,,0.08,WeatherDisplay:10.36,2013-06-16 08:06:00,
2013-06-16 03:11:00,69.4,63.4,29.94,NE,42,4.0,0.0,81,0.08,,,0.08,WeatherDisplay:10.36,2013-06-16 08:11:00,
2013-06-16 03:16:00,69.4,63.4,29.91,NE,44,3.5,0.0,81,0.04,,,0.08,WeatherDisplay:10.36,2013-06-16 08:16:00,
2013-06-16 03:21:00,69.3,63.2,29.91,NE,42,0.0,0.0,81,0.04,,,0.08,WeatherDisplay:10.36,2013-06-16 08:21:00,
2013-06-16 03:26:00,69.3,63.2,29.91,NE,45,3.5,0.0,81,0.04,,,0.08,WeatherDisplay:10.36,2013-06-16 08:26:00,
2013-06-16 03:31:00,69.3,63.2,29.94,NE,44,3.6,0.0,81,0.00,,,0.08,WeatherDisplay:10.36,2013-06-16 08:31:00,
2013-06-16 03:36:00,69.3,63.2,29.94,NE,43,0.0,0.0,81,0.00,,,0.08,WeatherDisplay:10.36,2013-06-16 08:36:00,
2013-06-16 03:41:00,69.1,63.0,29.94,NE,38,5.8,5.8,81,0.00,,,0.08,WeatherDisplay:10.36,2013-06-16 08:41:00,
2013-06-16 03:46:00,69.1,63.4,29.94,NE,44,5.8,5.8,82,0.00,,,0.08,WeatherDisplay:10.36,2013-06-16 08:46:00,
2013-06-16 03:51:00,68.9,63.2,29.94,NE,41,5.8,5.8,82,0.00,,,0.08,WeatherDisplay:10.36,2013-06-16 08:51:00,
2013-06-16 03:56:00,68.9,63.2,29.94,NE,44,6.9,6.9,82,0.00,,,0.08,WeatherDisplay:10.36,2013-06-16 08:56:00,
2013-06-16 04:01:00,68.9,63.2,29.94,NE,43,5.8,5.8,82,0.00,,,0.08,WeatherDisplay:10.36,2013-06-16 09:01:00,
2013-06-16 04:06:00,68.9,63.2,29.94,NE,43,2.3,0.0,82,0.00,,,0.08,WeatherDisplay:10.36,2013-06-16 09:06:00,
2013-06-16 04:11:00,68.7,63.3,29.94,NE,41,5.8,5.8,83,0.00,,,0.08,WeatherDisplay:10.36,2013-06-16 09:11:00,
2013-06-16 04:16:00,68.7,63.3,29.94,NE,38,5.8,5.8,83,0.00,,,0.08,WeatherDisplay:10.36,2013-06-16 09:16:00,
2013-06-16 04:21:00,68.7,63.3,29.94,NE,43,2.7,0.0,83,0.00,,,0.08,WeatherDisplay:10.36,2013-06-16 09:21:00,
2013-06-16 04:26:00,68.7,63.3,29.94,NE,42,5.8,5.8,83,0.00,,,0.08,WeatherDisplay:10.36,2013-06-16 09:26:00,
2013-06-16 04:31:00,68.7,63.3,29.94,NE,43,5.8,5.8,83,0.00,,,0.08,WeatherDisplay:10.36,2013-06-16 09:31:00,
2013-06-16 04:36:00,68.7,63.7,29.94,NE,43,3.6,0.0,84,0.00,,,0.08,WeatherDisplay:10.36,2013-06-16 09:36:00,
2013-06-16 04:41:00,68.5,63.5,29.94,NE,41,5.8,0.0,84,0.00,,,0.08,WeatherDisplay:10.36,2013-06-16 09:41:00,
2013-06-16 04:46:00,68.5,63.5,29.94,NE,45,5.8,5.8,84,0.00,,,0.08,WeatherDisplay:10.36,2013-06-16 09:46:00,
2013-06-16 04:51:00,68.5,63.5,29.94,NE,43,5.8,5.8,84,0.00,,,0.08,WeatherDisplay:10.36,2013-06-16 09:51:00,
2013-06-16 04:56:00,68.7,63.7,29.94,NE,40,5.8,5.8,84,0.00,,,0.08,WeatherDisplay:10.36,2013-06-16 09:56:00,
2013-06-16 05:01:00,68.7,63.7,29.94,NE,44,3.6,0.0,84,0.00,,,0.08,WeatherDisplay:10.36,2013-06-16 10:01:00,
2013-06-16 05:06:00,68.7,63.7,29.94,NE,42,4.0,4.0,84,0.00,,,0.08,WeatherDisplay:10.36,2013-06-16 10:06:00,
2013-06-16 05:12:00,68.7,64.0,29.94,NE,39,5.8,0.0,85,0.00,,,0.08,WeatherDisplay:10.36,2013-06-16 10:12:00,
2013-06-16 05:17:00,68.7,64.0,29.94,NE,42,6.9,6.9,85,0.00,,,0.08,WeatherDisplay:10.36,2013-06-16 10:17:00,
2013-06-16 05:22:00,68.7,64.0,29.94,NE,42,3.5,0.0,85,0.00,,,0.08,WeatherDisplay:10.36,2013-06-16 10:22:00,
2013-06-16 05:28:00,68.7,64.0,29.94,NE,42,5.8,0.0,85,0.00,,,0.08,WeatherDisplay:10.36,2013-06-16 10:28:00,
2013-06-16 05:33:00,68.7,64.0,29.94,NE,46,5.8,5.8,85,0.00,,,0.08,WeatherDisplay:10.36,2013-06-16 10:33:00,
2013-06-16 05:38:00,68.7,64.0,29.94,NE,42,0.0,0.0,85,0.00,,,0.08,WeatherDisplay:10.36,2013-06-16 10:38:00,
2013-06-16 05:43:00,68.7,64.4,29.94,NE,41,0.0,0.0,86,0.00,,,0.08,WeatherDisplay:10.36,2013-06-16 10:43:00,
2013-06-16 05:48:00,68.7,64.0,29.94,NE,44,0.0,0.0,85,0.00,,,0.08,WeatherDisplay:10.36,2013-06-16 10:48:00,
2013-06-16 05:53:00,68.7,64.4,29.94,NE,42,0.0,0.0,86,0.00,,,0.08,WeatherDisplay:10.36,2013-06-16 10:53:00,
2013-06-16 05:58:00,68.7,64.4,29.94,NE,42,0.0,0.0,86,0.00,,,0.08,WeatherDisplay:10.36,2013-06-16 10:58:00,
2013-06-16 06:03:00,68.7,64.4,29.94,NE,42,0.0,0.0,86,0.00,,,0.08,WeatherDisplay:10.36,2013-06-16 11:03:00,
2013-06-16 06:08:00,68.7,64.4,29.94,NE,43,0.0,0.0,86,0.00,,,0.08,WeatherDisplay:10.36,2013-06-16 11:08:00,
2013-06-16 06:13:00,68.7,64.4,29.94,NE,43,0.0,0.0,86,0.00,,,0.08,WeatherDisplay:10.36,2013-06-16 11:13:00,
2013-06-16 06:18:00,68.7,64.4,29.94,NE,43,3.1,0.0,86,0.00,,,0.08,WeatherDisplay:10.36,2013-06-16 11:18:00,
2013-06-16 06:23:00,68.9,64.5,29.94,NE,44,0.0,0.0,86,0.00,,,0.08,WeatherDisplay:10.36,2013-06-16 11:23:00,
2013-06-16 06:28:00,68.7,64.4,29.94,NE,42,3.5,0.0,86,0.00,,,0.08,WeatherDisplay:10.36,2013-06-16 11:28:00,
2013-06-16 06:33:00,68.9,64.5,29.97,NE,43,3.5,0.0,86,0.00,,,0.08,WeatherDisplay:10.36,2013-06-16 11:33:00,
2013-06-16 06:38:00,68.9,64.5,29.97,NE,42,4.9,4.9,86,0.00,,,0.08,WeatherDisplay:10.36,2013-06-16 11:38:00,
2013-06-16 06:43:00,69.1,64.7,29.97,NE,44,0.0,0.0,86,0.00,,,0.08,WeatherDisplay:10.36,2013-06-16 11:43:00,
2013-06-16 06:48:00,69.1,64.7,29.97,NE,42,3.5,0.0,86,0.00,,,0.08,WeatherDisplay:10.36,2013-06-16 11:48:00,
2013-06-16 06:53:00,69.3,64.9,29.97,NE,42,4.6,4.6,86,0.00,,,0.08,WeatherDisplay:10.36,2013-06-16 11:53:00,
2013-06-16 06:58:00,69.3,64.9,29.97,NE,45,3.5,0.0,86,0.00,,,0.08,WeatherDisplay:10.36,2013-06-16 11:58:00,
2013-06-16 07:03:00,69.4,65.1,29.97,NE,42,3.5,3.5,86,0.00,,,0.08,WeatherDisplay:10.36,2013-06-16 12:03:00,
2013-06-16 07:08:00,69.4,65.1,29.97,NE,45,0.0,0.0,86,0.00,,,0.08,WeatherDisplay:10.36,2013-06-16 12:08:00,
2013-06-16 07:13:00,69.6,65.6,29.97,NE,43,3.6,0.0,87,0.00,,,0.08,WeatherDisplay:10.36,2013-06-16 12:13:00,
2013-06-16 07:18:00,70.0,65.9,29.97,NE,39,5.4,5.4,87,0.00,,,0.08,WeatherDisplay:10.36,2013-06-16 12:18:00,
2013-06-16 07:23:00,70.2,66.1,29.97,NE,43,5.4,5.4,87,0.00,,,0.08,WeatherDisplay:10.36,2013-06-16 12:23:00,
2013-06-16 07:28:00,70.2,66.1,29.97,NE,39,4.0,4.0,87,0.00,,,0.08,WeatherDisplay:10.36,2013-06-16 12:28:00,
2013-06-16 07:33:00,70.3,66.3,29.97,NE,42,3.6,0.0,87,0.00,,,0.08,WeatherDisplay:10.36,2013-06-16 12:33:00,
2013-06-16 07:38:00,70.5,66.5,29.97,NE,42,0.0,0.0,87,0.00,,,0.08,WeatherDisplay:10.36,2013-06-16 12:38:00,
2013-06-16 07:43:00,70.7,66.6,29.97,NE,46,4.0,0.0,87,0.00,,,0.08,WeatherDisplay:10.36,2013-06-16 12:43:00,
2013-06-16 07:48:00,70.9,66.5,29.97,NE,44,0.0,0.0,86,0.00,,,0.08,WeatherDisplay:10.36,2013-06-16 12:48:00,
2013-06-16 07:53:00,70.9,66.5,29.97,NE,47,3.1,0.0,86,0.00,,,0.08,WeatherDisplay:10.36,2013-06-16 12:53:00,
2013-06-16 07:58:00,71.1,66.7,29.97,NE,43,3.6,3.6,86,0.00,,,0.08,WeatherDisplay:10.36,2013-06-16 12:58:00,
2013-06-16 08:03:00,71.1,66.3,29.97,NE,43,3.6,3.6,85,0.00,,,0.08,WeatherDisplay:10.36,2013-06-16 13:03:00,
2013-06-16 08:08:00,71.2,66.5,29.97,NE,42,3.5,0.0,85,0.00,,,0.08,WeatherDisplay:10.36,2013-06-16 13:08:00,
2013-06-16 08:13:00,71.6,66.8,29.97,NE,42,5.4,5.4,85,0.00,,,0.08,WeatherDisplay:10.36,2013-06-16 13:13:00,
2013-06-16 08:18:00,72.0,67.2,29.97,NE,43,3.1,0.0,85,0.00,,,0.08,WeatherDisplay:10.36,2013-06-16 13:18:00,
2013-06-16 08:23:00,72.3,67.6,29.97,NE,41,2.7,0.0,85,0.00,,,0.08,WeatherDisplay:10.36,2013-06-16 13:23:00,
2013-06-16 08:28:00,72.7,67.6,29.97,NE,39,4.9,4.9,84,0.00,,,0.08,WeatherDisplay:10.36,2013-06-16 13:28:00,
2013-06-16 08:33:00,73.0,67.9,29.97,NE,39,5.8,5.8,84,0.00,,,0.08,WeatherDisplay:10.36,2013-06-16 13:33:00,
2013-06-16 08:38:00,73.6,68.8,29.97,NE,40,4.6,4.6,85,0.00,,,0.08,WeatherDisplay:10.36,2013-06-16 13:38:00,
2013-06-16 08:43:00,74.1,69.0,29.97,NE,41,4.6,4.6,84,0.00,,,0.08,WeatherDisplay:10.36,2013-06-16 13:43:00,
2013-06-16 08:48:00,74.5,69.0,29.97,NE,41,5.8,5.8,83,0.00,,,0.08,WeatherDisplay:10.36,2013-06-16 13:48:00,
2013-06-16 08:53:00,74.8,69.0,29.97,NE,43,5.8,5.8,82,0.00,,,0.08,WeatherDisplay:10.36,2013-06-16 13:53:00,
2013-06-16 08:58:00,75.2,68.6,29.97,NE,41,3.6,3.6,80,0.00,,,0.08,WeatherDisplay:10.36,2013-06-16 13:58:00,
2013-06-16 09:03:00,75.4,68.8,29.97,NE,38,4.9,4.9,80,0.00,,,0.08,WeatherDisplay:10.36,2013-06-16 14:03:00,
2013-06-16 09:08:00,75.6,68.6,29.97,NE,42,5.4,5.4,79,0.00,,,0.08,WeatherDisplay:10.36,2013-06-16 14:08:00,
2013-06-16 09:13:00,75.9,68.6,29.97,NE,44,3.5,0.0,78,0.00,,,0.08,WeatherDisplay:10.36,2013-06-16 14:13:00,
2013-06-16 09:18:00,75.9,68.2,29.97,NE,46,4.6,4.6,77,0.00,,,0.08,WeatherDisplay:10.36,2013-06-16 14:18:00,
2013-06-16 09:23:00,76.1,68.4,29.97,NE,42,5.4,0.0,77,0.00,,,0.08,WeatherDisplay:10.36,2013-06-16 14:23:00,
2013-06-16 09:28:00,76.3,67.8,29.97,NE,43,6.3,6.3,75,0.00,,,0.08,WeatherDisplay:10.36,2013-06-16 14:28:00,
2013-06-16 09:33:00,76.5,67.9,29.97,NE,38,4.5,4.5,75,0.00,,,0.08,WeatherDisplay:10.36,2013-06-16 14:33:00,
2013-06-16 09:38:00,76.5,67.6,29.97,NE,41,2.7,2.7,74,0.00,,,0.08,WeatherDisplay:10.36,2013-06-16 14:38:00,
2013-06-16 09:43:00,76.6,67.7,29.97,NE,41,5.8,5.8,74,0.00,,,0.08,WeatherDisplay:10.36,2013-06-16 14:43:00,
2013-06-16 09:48:00,76.8,67.5,29.97,NE,44,4.6,4.6,73,0.00,,,0.08,WeatherDisplay:10.36,2013-06-16 14:48:00,
2013-06-16 09:53:00,77.0,67.3,29.97,NE,40,4.0,4.0,72,0.00,,,0.08,WeatherDisplay:10.36,2013-06-16 14:53:00,
2013-06-16 09:58:00,77.2,67.0,29.97,NE,40,3.1,0.0,71,0.00,,,0.08,WeatherDisplay:10.36,2013-06-16 14:58:00,
2013-06-16 10:03:00,77.5,67.4,29.97,NE,43,4.0,0.0,71,0.00,,,0.08,WeatherDisplay:10.36,2013-06-16 15:03:00,
2013-06-16 10:08:00,77.9,67.3,29.97,NE,43,3.5,0.0,70,0.00,,,0.08,WeatherDisplay:10.36,2013-06-16 15:08:00,
2013-06-16 10:13:00,78.1,67.1,29.97,NE,45,4.9,4.9,69,0.00,,,0.08,WeatherDisplay:10.36,2013-06-16 15:13:00,
2013-06-16 10:18:00,78.4,67.0,29.94,NE,43,0.0,0.0,68,0.00,,,0.08,WeatherDisplay:10.36,2013-06-16 15:18:00,
2013-06-16 10:23:00,78.8,66.9,29.94,NE,43,4.6,4.6,67,0.00,,,0.08,WeatherDisplay:10.36,2013-06-16 15:23:00,
2013-06-16 10:28:00,79.0,67.1,29.94,NE,42,4.9,4.9,67,0.00,,,0.08,WeatherDisplay:10.36,2013-06-16 15:28:00,
2013-06-16 10:33:00,78.8,66.5,29.97,NE,39,6.9,6.9,66,0.00,,,0.08,WeatherDisplay:10.36,2013-06-16 15:33:00,
2013-06-16 10:38:00,79.0,66.2,29.97,NE,41,4.9,4.9,65,0.00,,,0.08,WeatherDisplay:10.36,2013-06-16 15:38:00,
2013-06-16 10:43:00,79.3,66.5,29.97,NE,43,4.6,0.0,65,0.00,,,0.08,WeatherDisplay:10.36,2013-06-16 15:43:00,
2013-06-16 10:48:00,79.5,66.3,29.94,NE,41,6.7,6.7,64,0.00,,,0.08,WeatherDisplay:10.36,2013-06-16 15:48:00,
2013-06-16 10:53:00,79.9,66.2,29.94,NE,43,4.0,4.0,63,0.00,,,0.08,WeatherDisplay:10.36,2013-06-16 15:53:00,
2013-06-16 10:58:00,80.1,66.3,29.94,NE,43,3.5,0.0,63,0.00,,,0.08,WeatherDisplay:10.36,2013-06-16 15:58:00,
2013-06-16 11:03:00,80.4,66.7,29.94,NE,44,4.0,0.0,63,0.00,,,0.08,WeatherDisplay:10.36,2013-06-16 16:03:00,
2013-06-16 11:08:00,80.8,66.5,29.94,NE,39,2.7,2.7,62,0.00,,,0.08,WeatherDisplay:10.36,2013-06-16 16:08:00,
2013-06-16 11:13:00,81.0,66.2,29.94,NE,44,4.9,4.9,61,0.00,,,0.08,WeatherDisplay:10.36,2013-06-16 16:13:00,
2013-06-16 11:18:00,81.1,66.4,29.94,NE,38,0.0,0.0,61,0.00,,,0.08,WeatherDisplay:10.36,2013-06-16 16:18:00,
2013-06-16 11:23:00,81.5,65.8,29.94,NE,35,0.0,0.0,59,0.00,,,0.08,WeatherDisplay:10.36,2013-06-16 16:23:00,
2013-06-16 11:28:00,81.5,65.3,29.94,NE,44,4.6,4.6,58,0.00,,,0.08,WeatherDisplay:10.36,2013-06-16 16:28:00,
2013-06-16 11:33:00,81.5,65.3,29.94,NE,40,5.8,5.8,58,0.00,,,0.08,WeatherDisplay:10.36,2013-06-16 16:33:00,
2013-06-16 11:38:00,81.9,65.6,29.94,NE,40,0.0,0.0,58,0.00,,,0.08,WeatherDisplay:10.36,2013-06-16 16:38:00,
2013-06-16 11:43:00,82.2,65.5,29.94,NE,40,4.0,4.0,57,0.00,,,0.08,WeatherDisplay:10.36,2013-06-16 16:43:00,
2013-06-16 11:48:00,82.4,65.6,29.94,NE,44,4.5,0.0,57,0.00,,,0.08,WeatherDisplay:10.36,2013-06-16 16:48:00,
2013-06-16 11:53:00,82.8,65.5,29.94,NE,44,0.0,0.0,56,0.00,,,0.08,WeatherDisplay:10.36,2013-06-16 16:53:00,
2013-06-16 11:58:00,82.6,64.3,29.94,NE,43,0.0,0.0,54,0.00,,,0.08,WeatherDisplay:10.36,2013-06-16 16:58:00,
2013-06-16 12:03:00,82.2,63.9,29.94,NE,43,3.6,0.0,54,0.00,,,0.08,WeatherDisplay:10.36,2013-06-16 17:03:00,
2013-06-16 12:08:00,82.0,64.3,29.94,NE,44,0.0,0.0,55,0.00,,,0.08,WeatherDisplay:10.36,2013-06-16 17:08:00,
2013-06-16 12:13:00,82.2,64.4,29.94,NE,44,0.0,0.0,55,0.00,,,0.08,WeatherDisplay:10.36,2013-06-16 17:13:00,
2013-06-16 12:18:00,82.4,64.6,29.94,NE,44,0.0,0.0,55,0.00,,,0.08,WeatherDisplay:10.36,2013-06-16 17:18:00,
2013-06-16 12:23:00,82.6,64.8,29.94,NE,44,0.0,0.0,55,0.00,,,0.08,WeatherDisplay:10.36,2013-06-16 17:23:00,
2013-06-16 12:28:00,82.6,64.8,29.94,NE,45,0.0,0.0,55,0.00,,,0.08,WeatherDisplay:10.36,2013-06-16 17:28:00,
2013-06-16 12:33:00,82.8,64.4,29.94,NE,44,0.0,0.0,54,0.00,,,0.08,WeatherDisplay:10.36,2013-06-16 17:33:00,
2013-06-16 12:38:00,82.8,63.9,29.94,NE,43,3.6,0.0,53,0.00,,,0.08,WeatherDisplay:10.36,2013-06-16 17:38:00,
2013-06-16 12:43:00,82.6,62.6,29.94,NE,43,4.6,4.6,51,0.00,,,0.08,WeatherDisplay:10.36,2013-06-16 17:43:00,
2013-06-16 12:48:00,82.2,61.7,29.94,NE,43,0.0,0.0,50,0.00,,,0.08,WeatherDisplay:10.36,2013-06-16 17:48:00,
2013-06-16 12:53:00,81.9,61.4,29.94,NE,43,3.6,3.6,50,0.00,,,0.08,WeatherDisplay:10.36,2013-06-16 17:53:00,
2013-06-16 12:58:00,81.3,60.9,29.94,NE,42,5.8,5.8,50,0.00,,,0.08,WeatherDisplay:10.36,2013-06-16 17:58:00,
2013-06-16 13:03:00,81.0,62.2,29.94,NE,42,4.6,4.6,53,0.00,,,0.08,WeatherDisplay:10.36,2013-06-16 18:03:00,
2013-06-16 13:08:00,81.0,62.2,29.94,NE,41,0.0,0.0,53,0.00,,,0.08,WeatherDisplay:10.36,2013-06-16 18:08:00,
2013-06-16 13:13:00,81.3,63.1,29.94,NE,41,0.0,0.0,54,0.00,,,0.08,WeatherDisplay:10.36,2013-06-16 18:13:00,
2013-06-16 13:18:00,81.7,62.3,29.94,NE,41,0.0,0.0,52,0.00,,,0.08,WeatherDisplay:10.36,2013-06-16 18:18:00,
2013-06-16 13:23:00,82.0,63.2,29.94,NE,41,3.1,0.0,53,0.00,,,0.08,WeatherDisplay:10.36,2013-06-16 18:23:00,
2013-06-16 13:28:00,82.2,63.4,29.94,NE,41,0.0,0.0,53,0.00,,,0.08,WeatherDisplay:10.36,2013-06-16 18:28:00,
2013-06-16 13:33:00,82.4,63.5,29.94,NE,41,0.0,0.0,53,0.00,,,0.08,WeatherDisplay:10.36,2013-06-16 18:33:00,
2013-06-16 13:38:00,82.6,63.2,29.94,NE,41,0.0,0.0,52,0.00,,,0.08,WeatherDisplay:10.36,2013-06-16 18:38:00,
2013-06-16 13:43:00,82.6,63.2,29.94,NE,41,0.0,0.0,52,0.00,,,0.08,WeatherDisplay:10.36,2013-06-16 18:43:00,
2013-06-16 13:48:00,82.6,63.2,29.94,NE,41,0.0,0.0,52,0.00,,,0.08,WeatherDisplay:10.36,2013-06-16 18:48:00,
2013-06-16 13:53:00,82.6,63.7,29.94,NE,41,6.3,6.3,53,0.00,,,0.08,WeatherDisplay:10.36,2013-06-16 18:53:00,
2013-06-16 13:58:00,82.6,63.7,29.94,NE,40,3.6,3.6,53,0.00,,,0.08,WeatherDisplay:10.36,2013-06-16 18:58:00,
2013-06-16 14:03:00,82.8,63.9,29.94,NE,41,0.0,0.0,53,0.00,,,0.08,WeatherDisplay:10.36,2013-06-16 19:03:00,
2013-06-16 14:08:00,82.8,62.8,29.94,NE,40,0.0,0.0,51,0.00,,,0.08,WeatherDisplay:10.36,2013-06-16 19:08:00,
2013-06-16 14:13:00,82.9,63.0,29.94,NE,40,0.0,0.0,51,0.00,,,0.08,WeatherDisplay:10.36,2013-06-16 19:13:00,
2013-06-16 14:18:00,83.1,63.1,29.94,NE,41,4.0,0.0,51,0.00,,,0.08,WeatherDisplay:10.36,2013-06-16 19:18:00,
2013-06-16 14:23:00,83.3,63.3,29.94,NE,40,4.5,4.5,51,0.00,,,0.08,WeatherDisplay:10.36,2013-06-16 19:23:00,
2013-06-16 14:28:00,83.3,62.7,29.94,NE,39,4.6,4.6,50,0.00,,,0.08,WeatherDisplay:10.36,2013-06-16 19:28:00,
2013-06-16 14:33:00,83.1,62.6,29.94,NE,40,5.8,5.8,50,0.00,,,0.08,WeatherDisplay:10.36,2013-06-16 19:33:00,
2013-06-16 14:38:00,82.9,63.0,29.94,NE,41,4.9,4.9,51,0.00,,,0.08,WeatherDisplay:10.36,2013-06-16 19:38:00,
2013-06-16 14:43:00,82.9,63.5,29.94,NE,41,4.9,4.9,52,0.00,,,0.08,WeatherDisplay:10.36,2013-06-16 19:43:00,
2013-06-16 14:48:00,82.9,63.5,29.94,NE,40,2.7,0.0,52,0.00,,,0.08,WeatherDisplay:10.36,2013-06-16 19:48:00,
2013-06-16 14:53:00,82.8,63.3,29.94,NE,41,3.5,0.0,52,0.00,,,0.08,WeatherDisplay:10.36,2013-06-16 19:53:00,
2013-06-16 14:58:00,82.6,63.2,29.94,NE,43,3.6,0.0,52,0.00,,,0.08,WeatherDisplay:10.36,2013-06-16 19:58:00,
2013-06-16 15:03:00,82.4,63.5,29.94,NE,37,5.8,5.8,53,0.00,,,0.08,WeatherDisplay:10.36,2013-06-16 20:03:00,
2013-06-16 15:08:00,82.2,63.4,29.94,NE,43,5.8,0.0,53,0.00,,,0.08,WeatherDisplay:10.36,2013-06-16 20:08:00,
2013-06-16 15:13:00,82.2,63.9,29.94,NE,42,5.8,5.8,54,0.00,,,0.08,WeatherDisplay:10.36,2013-06-16 20:13:00,
2013-06-16 15:18:00,82.0,64.3,29.94,NE,43,4.6,4.6,55,0.00,,,0.08,WeatherDisplay:10.36,2013-06-16 20:18:00,
2013-06-16 15:23:00,82.2,65.0,29.94,NE,44,5.8,5.8,56,0.00,,,0.08,WeatherDisplay:10.36,2013-06-16 20:23:00,
2013-06-16 15:28:00,82.4,65.1,29.94,NE,42,4.0,4.0,56,0.00,,,0.08,WeatherDisplay:10.36,2013-06-16 20:28:00,
2013-06-16 15:33:00,82.6,65.3,29.94,NE,41,4.6,0.0,56,0.00,,,0.08,WeatherDisplay:10.36,2013-06-16 20:33:00,
2013-06-16 15:38:00,82.6,65.3,29.94,NE,39,0.0,0.0,56,0.00,,,0.08,WeatherDisplay:10.36,2013-06-16 20:38:00,
2013-06-16 15:43:00,82.8,65.5,29.94,NE,44,4.6,4.6,56,0.00,,,0.08,WeatherDisplay:10.36,2013-06-16 20:43:00,
2013-06-16 15:48:00,82.9,65.6,29.94,NE,43,5.8,5.8,56,0.00,,,0.08,WeatherDisplay:10.36,2013-06-16 20:48:00,
2013-06-16 15:53:00,82.9,65.6,29.94,NE,44,3.5,3.5,56,0.00,,,0.08,WeatherDisplay:10.36,2013-06-16 20:53:00,
2013-06-16 15:58:00,82.8,65.5,29.94,NE,44,0.0,0.0,56,0.00,,,0.08,WeatherDisplay:10.36,2013-06-16 20:58:00,
2013-06-16 16:03:00,82.8,65.5,29.94,NE,39,4.9,4.9,56,0.00,,,0.08,WeatherDisplay:10.36,2013-06-16 21:03:00,
2013-06-16 16:08:00,82.6,65.3,29.94,NE,38,0.0,0.0,56,0.00,,,0.08,WeatherDisplay:10.36,2013-06-16 21:08:00,
2013-06-16 16:13:00,82.6,65.3,29.94,NE,42,3.6,0.0,56,0.00,,,0.08,WeatherDisplay:10.36,2013-06-16 21:13:00,
2013-06-16 16:18:00,82.8,65.5,29.94,NNE,30,3.6,0.0,56,0.00,,,0.08,WeatherDisplay:10.36,2013-06-16 21:18:00,
2013-06-16 16:23:00,82.8,65.5,29.94,NNE,30,0.0,0.0,56,0.00,,,0.08,WeatherDisplay:10.36,2013-06-16 21:23:00,
2013-06-16 16:28:00,82.9,65.6,29.94,NNE,30,0.0,0.0,56,0.00,,,0.08,WeatherDisplay:10.36,2013-06-16 21:28:00,
2013-06-16 16:33:00,83.1,65.3,29.94,NE,38,0.0,0.0,55,0.00,,,0.08,WeatherDisplay:10.36,2013-06-16 21:33:00,
2013-06-16 16:38:00,83.3,65.4,29.94,NE,44,3.5,3.5,55,0.00,,,0.08,WeatherDisplay:10.36,2013-06-16 21:38:00,
2013-06-16 16:43:00,83.5,65.1,29.94,NE,44,0.0,0.0,54,0.00,,,0.08,WeatherDisplay:10.36,2013-06-16 21:43:00,
2013-06-16 16:48:00,83.5,65.1,29.94,NE,42,4.6,0.0,54,0.00,,,0.08,WeatherDisplay:10.36,2013-06-16 21:48:00,
2013-06-16 16:53:00,83.3,65.4,29.94,NE,43,0.0,0.0,55,0.00,,,0.08,WeatherDisplay:10.36,2013-06-16 21:53:00,
2013-06-16 16:58:00,83.1,64.8,29.94,North,351,0.0,0.0,54,0.00,,,0.08,WeatherDisplay:10.36,2013-06-16 21:58:00,
2013-06-16 17:03:00,83.1,64.8,29.94,WSW,252,0.0,0.0,54,0.00,,,0.08,WeatherDisplay:10.36,2013-06-16 22:03:00,
2013-06-16 17:08:00,82.8,64.4,29.94,West,262,0.0,0.0,54,0.00,,,0.08,WeatherDisplay:10.36,2013-06-16 22:08:00,
2013-06-16 17:13:00,82.9,65.1,29.94,WSW,253,0.0,0.0,55,0.00,,,0.08,WeatherDisplay:10.36,2013-06-16 22:13:00,
2013-06-16 17:18:00,82.9,65.6,29.94,West,260,2.7,0.0,56,0.00,,,0.08,WeatherDisplay:10.36,2013-06-16 22:18:00,
2013-06-16 17:23:00,82.9,65.6,29.94,West,262,0.0,0.0,56,0.00,,,0.08,WeatherDisplay:10.36,2013-06-16 22:23:00,
2013-06-16 17:28:00,82.9,64.6,29.94,NE,42,0.0,0.0,54,0.00,,,0.08,WeatherDisplay:10.36,2013-06-16 22:28:00,
2013-06-16 17:33:00,82.6,64.8,30.74,North,351,3.6,0.0,55,0.00,,,0.08,WeatherDisplay:10.36,2013-06-16 22:33:00,
2013-06-16 17:38:00,82.6,64.8,30.74,NW,325,6.3,6.3,55,0.00,,,0.08,WeatherDisplay:10.36,2013-06-16 22:38:00,
2013-06-16 17:43:00,82.4,65.1,30.74,North,351,0.0,0.0,56,0.00,,,0.08,WeatherDisplay:10.36,2013-06-16 22:43:00,
2013-06-16 17:48:00,82.4,65.1,29.94,NE,42,5.8,0.0,56,0.00,,,0.08,WeatherDisplay:10.36,2013-06-16 22:48:00,
2013-06-16 17:53:00,82.4,65.1,29.94,NE,42,5.4,0.0,56,0.00,,,0.08,WeatherDisplay:10.36,2013-06-16 22:53:00,
2013-06-16 17:58:00,82.0,64.8,29.94,NE,41,0.0,0.0,56,0.00,,,0.08,WeatherDisplay:10.36,2013-06-16 22:58:00,
2013-06-16 18:03:00,81.9,64.6,29.91,NE,41,4.0,4.0,56,0.00,,,0.08,WeatherDisplay:10.36,2013-06-16 23:03:00,
2013-06-16 18:08:00,81.7,64.5,29.91,NE,42,0.0,0.0,56,0.00,,,0.08,WeatherDisplay:10.36,2013-06-16 23:08:00,
2013-06-16 18:13:00,81.9,65.1,29.91,NE,41,0.0,0.0,57,0.00,,,0.08,WeatherDisplay:10.36,2013-06-16 23:13:00,
2013-06-16 18:18:00,82.0,65.3,29.91,North,351,6.3,0.0,57,0.00,,,0.08,WeatherDisplay:10.36,2013-06-16 23:18:00,
2013-06-16 18:23:00,81.9,64.6,29.91,North,351,5.8,5.8,56,0.00,,,0.08,WeatherDisplay:10.36,2013-06-16 23:23:00,
2013-06-16 18:28:00,81.3,64.6,29.91,North,351,3.5,0.0,57,0.00,,,0.08,WeatherDisplay:10.36,2013-06-16 23:28:00,
2013-06-16 18:33:00,81.3,65.1,30.74,North,351,4.0,0.0,58,0.00,,,0.08,WeatherDisplay:10.36,2013-06-16 23:33:00,
2013-06-16 18:38:00,81.1,65.0,30.74,West,261,0.0,0.0,58,0.00,,,0.08,WeatherDisplay:10.36,2013-06-16 23:38:00,
2013-06-16 18:43:00,81.1,65.0,30.74,WSW,250,0.0,0.0,58,0.00,,,0.08,WeatherDisplay:10.36,2013-06-16 23:43:00,
2013-06-16 18:48:00,81.3,65.1,29.91,West,261,0.0,0.0,58,0.00,,,0.08,WeatherDisplay:10.36,2013-06-16 23:48:00,
2013-06-16 18:53:00,81.3,65.1,29.91,West,261,0.0,0.0,58,0.00,,,0.08,WeatherDisplay:10.36,2013-06-16 23:53:00,
2013-06-16 18:58:00,81.1,64.5,29.91,West,261,4.6,4.6,57,0.00,,,0.08,WeatherDisplay:10.36,2013-06-16 23:58:00,
2013-06-16 19:03:00,81.1,64.5,29.91,WSW,253,0.0,0.0,57,0.00,,,0.08,WeatherDisplay:10.36,2013-06-17 00:03:00,
2013-06-16 19:08:00,81.0,64.8,29.91,WSW,250,0.0,0.0,58,0.00,,,0.08,WeatherDisplay:10.36,2013-06-17 00:08:00,
2013-06-16 19:13:00,81.1,65.0,29.91,West,260,0.0,0.0,58,0.00,,,0.08,WeatherDisplay:10.36,2013-06-17 00:13:00,
2013-06-16 19:18:00,81.0,64.8,29.91,WSW,251,0.0,0.0,58,0.00,,,0.08,WeatherDisplay:10.36,2013-06-17 00:18:00,
2013-06-16 19:23:00,80.8,64.6,29.91,West,261,0.0,0.0,58,0.00,,,0.08,WeatherDisplay:10.36,2013-06-17 00:23:00,
2013-06-16 19:28:00,80.8,65.1,29.91,West,262,3.5,0.0,59,0.00,,,0.08,WeatherDisplay:10.36,2013-06-17 00:28:00,
2013-06-16 19:33:00,80.6,64.9,29.91,WSW,254,0.0,0.0,59,0.00,,,0.08,WeatherDisplay:10.36,2013-06-17 00:33:00,
2013-06-16 19:38:00,80.4,64.8,29.91,WSW,254,0.0,0.0,59,0.00,,,0.08,WeatherDisplay:10.36,2013-06-17 00:38:00,
2013-06-16 19:43:00,80.4,64.8,29.91,WSW,256,0.0,0.0,59,0.00,,,0.08,WeatherDisplay:10.36,2013-06-17 00:43:00,
2013-06-16 19:48:00,80.4,65.3,29.91,West,261,0.0,0.0,60,0.00,,,0.08,WeatherDisplay:10.36,2013-06-17 00:48:00,
2013-06-16 19:53:00,80.2,65.1,29.91,West,259,0.0,0.0,60,0.00,,,0.08,WeatherDisplay:10.36,2013-06-17 00:53:00,
2013-06-16 19:58:00,80.1,65.4,29.91,West,263,0.0,0.0,61,0.00,,,0.08,WeatherDisplay:10.36,2013-06-17 00:58:00,
2013-06-16 20:03:00,79.9,65.2,29.91,West,262,0.0,0.0,61,0.00,,,0.08,WeatherDisplay:10.36,2013-06-17 01:03:00,
2013-06-16 20:08:00,79.7,65.1,29.91,West,261,0.0,0.0,61,0.00,,,0.08,WeatherDisplay:10.36,2013-06-17 01:08:00,
2013-06-16 20:13:00,79.5,65.4,29.91,WSW,255,0.0,0.0,62,0.00,,,0.08,WeatherDisplay:10.36,2013-06-17 01:13:00,
2013-06-16 20:18:00,79.3,65.2,29.91,West,259,0.0,0.0,62,0.00,,,0.08,WeatherDisplay:10.36,2013-06-17 01:18:00,
2013-06-16 20:23:00,79.2,65.5,29.91,West,263,0.0,0.0,63,0.00,,,0.08,WeatherDisplay:10.36,2013-06-17 01:23:00,
2013-06-16 20:28:00,78.8,65.6,29.91,WSW,250,0.0,0.0,64,0.00,,,0.08,WeatherDisplay:10.36,2013-06-17 01:28:00,
2013-06-16 20:33:00,78.8,65.6,29.91,WSW,257,0.0,0.0,64,0.00,,,0.08,WeatherDisplay:10.36,2013-06-17 01:33:00,
2013-06-16 20:38:00,78.6,65.4,29.91,West,261,0.0,0.0,64,0.00,,,0.08,WeatherDisplay:10.36,2013-06-17 01:38:00,
2013-06-16 20:43:00,78.4,65.2,29.91,WSW,253,0.0,0.0,64,0.00,,,0.08,WeatherDisplay:10.36,2013-06-17 01:43:00,
2013-06-16 20:48:00,78.3,65.5,29.91,West,260,0.0,0.0,65,0.00,,,0.08,WeatherDisplay:10.36,2013-06-17 01:48:00,
2013-06-16 20:53:00,78.1,65.4,29.91,WSW,257,0.0,0.0,65,0.00,,,0.08,WeatherDisplay:10.36,2013-06-17 01:53:00,
2013-06-16 20:58:00,77.9,65.2,29.91,West,263,0.0,0.0,65,0.00,,,0.08,WeatherDisplay:10.36,2013-06-17 01:58:00,
2013-06-16 21:03:00,77.9,65.6,29.91,West,260,0.0,0.0,66,0.00,,,0.08,WeatherDisplay:10.36,2013-06-17 02:03:00,
2013-06-16 21:08:00,77.7,65.5,29.91,West,261,0.0,0.0,66,0.00,,,0.08,WeatherDisplay:10.36,2013-06-17 02:08:00,
2013-06-16 21:13:00,77.5,65.7,29.91,West,263,0.0,0.0,67,0.00,,,0.08,WeatherDisplay:10.36,2013-06-17 02:13:00,
2013-06-16 21:18:00,77.4,65.5,29.91,West,261,0.0,0.0,67,0.00,,,0.08,WeatherDisplay:10.36,2013-06-17 02:18:00,
2013-06-16 21:23:00,77.4,65.5,29.91,West,260,0.0,0.0,67,0.00,,,0.08,WeatherDisplay:10.36,2013-06-17 02:23:00,
2013-06-16 21:28:00,77.2,65.4,29.91,West,259,0.0,0.0,67,0.00,,,0.08,WeatherDisplay:10.36,2013-06-17 02:28:00,
2013-06-16 21:33:00,77.2,65.8,29.94,WSW,252,0.0,0.0,68,0.00,,,0.08,WeatherDisplay:10.36,2013-06-17 02:33:00,
2013-06-16 21:38:00,77.2,65.8,29.94,WSW,248,0.0,0.0,68,0.00,,,0.08,WeatherDisplay:10.36,2013-06-17 02:38:00,
2013-06-16 21:43:00,77.0,65.6,29.94,WSW,252,0.0,0.0,68,0.00,,,0.08,WeatherDisplay:10.36,2013-06-17 02:43:00,
2013-06-16 21:48:00,77.0,65.6,29.94,WSW,250,0.0,0.0,68,0.00,,,0.08,WeatherDisplay:10.36,2013-06-17 02:48:00,
2013-06-16 21:53:00,76.8,65.5,29.94,West,263,0.0,0.0,68,0.00,,,0.08,WeatherDisplay:10.36,2013-06-17 02:53:00,
2013-06-16 21:58:00,76.6,65.3,29.94,WSW,247,0.0,0.0,68,0.00,,,0.08,WeatherDisplay:10.36,2013-06-17 02:58:00,
2013-06-16 22:03:00,76.5,65.5,29.97,WSW,254,0.0,0.0,69,0.00,,,0.08,WeatherDisplay:10.36,2013-06-17 03:03:00,
2013-06-16 22:08:00,76.5,65.5,29.97,WSW,249,0.0,0.0,69,0.00,,,0.08,WeatherDisplay:10.36,2013-06-17 03:08:00,
2013-06-16 22:13:00,76.3,65.4,29.97,WSW,258,0.0,0.0,69,0.00,,,0.08,WeatherDisplay:10.36,2013-06-17 03:13:00,
2013-06-16 22:18:00,75.9,65.4,29.94,WSW,239,0.0,0.0,70,0.00,,,0.08,WeatherDisplay:10.36,2013-06-17 03:18:00,
2013-06-16 22:23:00,75.9,65.4,29.94,WSW,240,0.0,0.0,70,0.00,,,0.08,WeatherDisplay:10.36,2013-06-17 03:23:00,
2013-06-16 22:28:00,75.7,65.3,29.94,WSW,251,0.0,0.0,70,0.00,,,0.08,WeatherDisplay:10.36,2013-06-17 03:28:00,
2013-06-16 22:33:00,75.7,65.3,29.94,West,264,0.0,0.0,70,0.00,,,0.08,WeatherDisplay:10.36,2013-06-17 03:33:00,
2013-06-16 22:38:00,75.6,65.5,29.94,WSW,242,0.0,0.0,71,0.00,,,0.08,WeatherDisplay:10.36,2013-06-17 03:38:00,
2013-06-16 22:43:00,75.6,65.5,29.94,WSW,243,0.0,0.0,71,0.00,,,0.08,WeatherDisplay:10.36,2013-06-17 03:43:00,
2013-06-16 22:48:00,75.6,65.9,29.97,WSW,247,0.0,0.0,72,0.00,,,0.08,WeatherDisplay:10.36,2013-06-17 03:48:00,
2013-06-16 22:53:00,75.4,65.7,29.97,West,260,0.0,0.0,72,0.00,,,0.08,WeatherDisplay:10.36,2013-06-17 03:53:00,
2013-06-16 22:58:00,75.4,65.7,29.97,West,262,0.0,0.0,72,0.00,,,0.08,WeatherDisplay:10.36,2013-06-17 03:58:00,
2013-06-16 23:01:00,75.4,66.1,29.97,WSW,246,0.0,0.0,73,0.00,,,0.08,WeatherDisplay:10.36,2013-06-17 04:01:00,
2013-06-16 23:02:00,75.4,66.1,29.97,WSW,243,0.0,0.0,73,0.00,,,0.08,WeatherDisplay:10.36,2013-06-17 04:02:00,
2013-06-16 23:06:00,75.2,65.9,29.97,West,262,0.0,0.0,73,0.00,,,0.08,WeatherDisplay:10.36,2013-06-17 04:06:00,
2013-06-16 23:11:00,75.2,65.9,29.97,WSW,254,0.0,0.0,73,0.00,,,0.08,WeatherDisplay:10.36,2013-06-17 04:11:00,
2013-06-16 23:14:00,75.2,65.9,29.97,West,259,0.0,0.0,73,0.00,,,0.08,WeatherDisplay:10.36,2013-06-17 04:14:00,
2013-06-16 23:19:00,75.0,66.2,29.97,West,263,0.0,0.0,74,0.00,,,0.08,WeatherDisplay:10.36,2013-06-17 04:19:00,
2013-06-16 23:21:00,75.0,66.2,29.97,West,263,0.0,0.0,74,0.00,,,0.08,WeatherDisplay:10.36,2013-06-17 04:21:00,
2013-06-16 23:26:00,75.0,66.2,29.97,West,263,0.0,0.0,74,0.00,,,0.08,WeatherDisplay:10.36,2013-06-17 04:26:00,
2013-06-16 23:31:00,75.0,66.2,29.97,WSW,257,0.0,0.0,74,0.00,,,0.08,WeatherDisplay:10.36,2013-06-17 04:31:00,
2013-06-16 23:36:00,75.0,66.2,29.97,West,263,0.0,0.0,74,0.00,,,0.08,WeatherDisplay:10.36,2013-06-17 04:36:00,
2013-06-16 23:41:00,74.8,66.4,29.97,West,261,0.0,0.0,75,0.00,,,0.08,WeatherDisplay:10.36,2013-06-17 04:41:00,
2013-06-16 23:46:00,74.8,66.4,29.97,West,262,0.0,0.0,75,0.00,,,0.08,WeatherDisplay:10.36,2013-06-17 04:46:00,
2013-06-16 23:51:00,74.8,66.4,29.97,West,262,0.0,0.0,75,0.00,,,0.08,WeatherDisplay:10.36,2013-06-17 04:51:00,
2013-06-16 23:56:00,74.7,66.2,29.97,West,261,0.0,0.0,75,0.00,,,0.08,WeatherDisplay:10.36,2013-06-17 04:56:00,